FW8074 Weather Reports


Display with metric or nautical units.
time (UTC)temp
F
wind
direction
speed
MPH
gust
MPH
rain 1hr
in
rain 24hr
in
rain mn
in
humidity
%
barometer
mb
20260509143059 67 289 0.0 3.0 0.00 0.00 0.00 86 1009.5
20260509141602 66 167 0.0 3.0 0.00 0.00 0.00 88 1009.4
20260509140105 64 0 0.0 0.0 0.00 0.00 0.00 89 1010.0
20260509134557 63 0 0.0 0.0 0.00 0.00 0.00 90 1010.0
20260509133056 62 178 0.0 4.0 0.00 0.00 0.00 91 1009.7
20260509131557 62 0 0.0 0.0 0.00 0.00 0.00 93 1010.0
20260509130057 60 0 0.0 0.0 0.00 0.00 0.00 93 1010.2
20260509124558 59 0 0.0 0.0 0.00 0.00 0.00 95 1010.4
20260509123118 59 0 0.0 0.0 0.00 0.00 0.00 95 1010.5
20260509121600 58 0 0.0 0.0 0.00 0.00 0.00 96 1010.6
20260509120058 57 0 0.0 0.0 0.00 0.00 0.00 96 1010.4
20260509114554 56 0 0.0 0.0 0.00 0.00 0.00 97 1010.6
20260509113055 56 0 0.0 0.0 0.00 0.00 0.00 97 1010.4
20260509111555 56 0 0.0 0.0 0.00 0.00 0.00 97 1010.2
20260509110053 55 0 0.0 0.0 0.00 0.00 0.00 97 1010.2
20260509104553 55 0 0.0 0.0 0.00 0.00 0.00 96 1009.8
20260509103103 55 0 0.0 0.0 0.00 0.00 0.00 96 1009.6
20260509101559 55 0 0.0 0.0 0.00 0.00 0.00 96 1009.3
20260509100059 55 0 0.0 0.0 0.00 0.00 0.00 95 1009.4
20260509094556 55 0 0.0 0.0 0.00 0.00 0.00 95 1009.4
20260509093057 55 0 0.0 0.0 0.00 0.00 0.00 95 1009.2
20260509091556 55 0 0.0 0.0 0.00 0.00 0.00 95 1009.3
20260509090100 55 0 0.0 0.0 0.00 0.00 0.00 95 1009.4
20260509084555 56 0 0.0 0.0 0.00 0.00 0.00 95 1009.5
20260509083059 56 0 0.0 0.0 0.00 0.00 0.00 94 1009.5
20260509081555 56 0 0.0 0.0 0.00 0.00 0.00 94 1009.4
20260509080059 56 0 0.0 0.0 0.00 0.00 0.00 93 1009.5
20260509074607 56 0 0.0 0.0 0.00 0.00 0.00 93 1009.9
20260509073057 57 0 0.0 0.0 0.00 0.00 0.00 92 1010.0
20260509071607 57 0 0.0 0.0 0.00 0.00 0.00 92 1010.3
20260509070057 57 0 0.0 0.0 0.00 0.00 0.00 92 1010.2
20260509064601 57 0 0.0 0.0 0.00 0.00 0.00 91 1010.4
20260509063100 57 0 0.0 0.0 0.00 0.00 0.00 91 1010.5
20260509061602 57 0 0.0 0.0 0.00 0.00 0.00 91 1011.1
20260509060104 57 0 0.0 0.0 0.00 0.00 0.00 91 1011.5
20260509054609 57 0 0.0 0.0 0.00 0.00 0.00 91 1011.6
20260509053106 57 0 0.0 0.0 0.00 0.00 0.00 90 1011.3
20260509051603 58 0 0.0 0.0 0.00 0.00 0.00 89 1011.4
20260509050058 58 0 0.0 0.0 0.00 0.00 0.00 89 1011.8
20260509044558 58 0 0.0 0.0 0.00 0.00 0.00 89 1012.1
20260509043100 58 0 0.0 0.0 0.00 0.00 0.00 88 1012.2
20260509041556 58 0 0.0 0.0 0.00 0.00 0.00 88 1012.5
20260509040055 58 0 0.0 0.0 0.00 0.00 0.00 86 1012.3
20260509034555 58 0 0.0 0.0 0.00 0.00 0.00 86 1012.3
20260509033056 58 0 0.0 0.0 0.00 0.00 0.00 86 1012.2
20260509031618 58 0 0.0 0.0 0.00 0.00 0.00 86 1012.3
20260509030101 58 0 0.0 0.0 0.00 0.00 0.00 85 1012.5
20260509024555 58 0 0.0 0.0 0.00 0.00 0.00 84 1012.5
20260509023102 58 0 0.0 0.0 0.00 0.00 0.00 82 1012.4
20260509021555 59 0 0.0 0.0 0.00 0.00 0.00 82 1012.6
20260509020055 59 0 0.0 0.0 0.00 0.00 0.00 81 1012.4
20260509014554 60 0 0.0 0.0 0.00 0.00 0.00 79 1012.2
20260509013110 60 0 0.0 0.0 0.00 0.00 0.00 77 1012.0
20260509011558 61 0 0.0 1.0 0.00 0.00 0.00 76 1012.0
20260509010058 61 0 0.0 0.0 0.00 0.00 0.00 74 1012.1
20260509004556 62 0 0.0 0.0 0.00 0.00 0.00 75 1011.7
20260509003055 63 0 0.0 0.0 0.00 0.00 0.00 74 1011.5
20260509001554 63 0 0.0 0.0 0.00 0.00 0.00 71 1011.4
20260509000108 65 0 0.0 0.0 0.00 0.00 0.00 69 1011.4
20260508234606 66 0 0.0 0.0 0.00 0.00 0.00 66 1011.4
20260508233101 67 0 0.0 1.0 0.00 0.00 0.00 66 1011.4
20260508231554 67 0 0.0 1.0 0.00 0.00 0.00 63 1011.2
20260508224557 69 0 0.0 3.0 0.00 0.00 0.00 60 1011.4
20260508223054 69 0 1.0 3.0 0.00 0.00 0.00 55 1011.2
20260508221601 70 125 2.0 5.0 0.00 0.00 0.00 51 1011.3
20260508220058 70 0 0.0 3.0 0.00 0.00 0.00 50 1011.3
20260508214609 70 317 0.0 4.0 0.00 0.00 0.00 50 1011.1
20260508213106 71 150 0.0 4.0 0.00 0.00 0.00 49 1011.1
20260508211559 71 132 1.0 4.0 0.00 0.00 0.00 45 1011.1
20260508210058 71 253 1.0 5.0 0.00 0.00 0.00 46 1011.0
20260508204612 71 182 0.0 6.0 0.00 0.00 0.00 43 1011.3
20260508203102 72 0 0.0 3.0 0.00 0.00 0.00 42 1011.5
20260508201612 71 40 1.0 3.0 0.00 0.00 0.00 44 1011.5
20260508200133 72 191 0.0 6.0 0.00 0.00 0.00 42 1011.7
20260508194556 72 4 3.0 5.0 0.00 0.00 0.00 40 1011.8
20260508193058 72 0 0.0 6.0 0.00 0.00 0.00 42 1012.1
20260508191559 72 155 1.0 5.0 0.00 0.00 0.00 42 1012.5
20260508190103 72 221 2.0 6.0 0.00 0.00 0.00 41 1012.6
20260508184555 71 237 1.0 6.0 0.00 0.00 0.00 44 1012.5
20260508183059 71 270 2.0 4.0 0.00 0.00 0.00 43 1012.5
20260508181614 70 268 1.0 5.0 0.00 0.00 0.00 45 1012.8
20260508180118 70 169 1.0 6.0 0.00 0.00 0.00 41 1013.0
20260508174606 70 276 3.0 6.0 0.00 0.03 0.00 42 1013.7
20260508173054 70 0 1.0 5.0 0.00 0.03 0.00 47 1013.4
20260508171557 69 221 1.0 4.0 0.00 0.03 0.00 46 1013.9
20260508170058 68 169 1.0 7.0 0.00 0.03 0.00 46 1013.9
20260508164557 67 321 1.0 7.0 0.00 0.16 0.00 48 1014.2
20260508163055 67 294 2.0 8.0 0.00 0.16 0.00 47 1014.1
20260508161557 67 265 2.0 7.0 0.00 0.16 0.00 47 1014.5
20260508160056 67 49 2.0 8.0 0.00 0.16 0.00 51 1014.7
20260508154558 66 1 2.0 10.0 0.00 0.36 0.00 57 1014.7
20260508153103 66 0 1.0 6.0 0.00 0.36 0.00 56 1014.7
20260508151604 65 132 3.0 9.0 0.00 0.36 0.00 58 1014.5
20260508150057 65 142 3.0 10.0 0.00 0.36 0.00 60 1014.7
20260508144600 64 150 1.0 7.0 0.00 0.63 0.00 63 1014.8